Venerdi 15 Febbraio 2019

 
Calliano - Provincia di Trento

189 mslm

45° 55' 59'' N 11° 05' 53'' E

Pagine realizzate e gestite da Andrea Pernecher

 

Tutti gli orari sono riferiti all'ora solare (GMT+1h)

>stazione meteo :: i dati del giorno  

 Dati relativi a VENERDI 15 FEBBRAIO 2019 ORE 22.39
 

 TEMPERATURA

4,0 °C

 

 ESCURS. TERMICA 13,5 °C

 

 

 TEMPERATURA MIN

1,9 °C

alle 07:29

 

 TEMPERATURA MAX 15,4 °C

alle 15:39

 

 TEMP.MEDIA INTEG.

6.7 °C

       
 

 PRESSIONE

1.031 mbar

 

 UMIDITA' 51 %

 

 PIOGGIA

0,0 mm

 

 INTENS. PIOGGIA 0,0 mm/h

 

 VENTO MAX

5,9 m/s

N

 

 DEW POINT

-5,2 °C

 
Immagini WebCam
ORE 8.00 ORE 12.00 ORE 16.00

> visualizza webcam 24 ore

 

 Dettaglio rilevazioni di Venerdi 15 Febbraio 2019 (ogni 15 minuti)
Ora Temperatura °C Umidità R. % Pressione mbar Vento m/s Dew Point °C Pioggia totale caduta mm Intensità della pioggia mm/h
  TEMPERATURA UMIDITA' PRESSIONE VENTO DEW POINT PIOGGIA INTENS. PIOGGIA
22:15 3,7 49 1.031 1,2 NE -6,0 0,0 0,0
22:00 3,7 49 1.031 1,4 NE -6,0 0,0 0,0
21:45 4,1 47 1.031 1,4 NE -6,2 0,0 0,0
21:30 4,7 46 1.031 1,6 NE -5,9 0,0 0,0
21:15 4,8 47 1.031 1,4 NE -5,6 0,0 0,0
21:00 4,9 44 1.031 0,0 NE -6,3 0,0 0,0
20:45 5,5 43 1.031 0,0 NE -6,1 0,0 0,0
20:30 6,2 42 1.030 1,0 NE -5,8 0,0 0,0
20:15 6,4 43 1.030 1,4 NE -5,3 0,0 0,0
20:00 6,5 42 1.030 0,0 NNW -5,5 0,0 0,0
19:45 6,8 40 1.030 2,6 SSE -5,9 0,0 0,0
19:30 7,0 39 1.030 0,0 W -6,0 0,0 0,0
19:15 7,4 38 1.030 2,2 SSE -6,0 0,0 0,0
19:00 8,0 37 1.030 2,2 S -5,8 0,0 0,0
18:45 8,5 36 1.030 0,0 ESE -5,7 0,0 0,0
18:30 9,4 35 1.029 0,0 ENE -5,3 0,0 0,0
18:15 9,8 34 1.029 1,6 NW -5,3 0,0 0,0
18:00 10,4 31 1.029 1,0 SSE -6,0 0,0 0,0
17:45 11,2 29 1.029 2,8 SSE -6,2 0,0 0,0
17:30 12,0 28 1.029 2,8 SSE -5,9 0,0 0,0
17:15 12,7 27 1.029 2,4 SSE -5,8 0,0 0,0
17:00 13,3 27 1.028 1,2 SSE -5,3 0,0 0,0
16:45 14,2 26 1.028 1,4 SE -5,0 0,0 0,0
16:30 14,4 26 1.028 3,4 SSE -4,9 0,0 0,0
16:15 14,9 26 1.028 2,2 SE -4,4 0,0 0,0
16:00 14,8 26 1.028 2,4 SSE -4,5 0,0 0,0
15:45 15,3 26 1.028 1,4 SE -4,1 0,0 0,0
15:30 15,0 26 1.028 1,2 SSE -4,3 0,0 0,0
15:15 14,6 26 1.028 1,0 N -4,7 0,0 0,0
15:00 14,4 26 1.028 0,0 NE -4,9 0,0 0,0
14:45 14,2 26 1.028 1,4 NNE -5,0 0,0 0,0
14:30 14,0 26 1.028 0,0 NE -5,2 0,0 0,0
14:15 13,8 27 1.028 2,6 NNW -4,9 0,0 0,0
14:00 13,5 27 1.028 1,6 NNE -5,1 0,0 0,0
13:45 12,9 28 1.029 2,8 NNE -5,2 0,0 0,0
13:30 12,6 28 1.029 1,8 NE -5,4 0,0 0,0
13:15 12,2 29 1.029 2,8 NE -5,3 0,0 0,0
13:00 11,8 30 1.029 4,5 NNE -5,2 0,0 0,0
12:45 11,4 31 1.029 2,4 ENE -5,1 0,0 0,0
12:30 10,8 32 1.030 2,2 N -5,2 0,0 0,0
12:15 10,2 34 1.030 3,6 NE -5,0 0,0 0,0
12:00 9,6 35 1.030 3,9 NNE -5,1 0,0 0,0
11:45 9,0 36 1.031 3,9 ENE -5,3 0,0 0,0
11:30 8,5 37 1.031 2,6 NNE -5,4 0,0 0,0
11:15 8,1 38 1.031 3,9 NE -5,4 0,0 0,0
11:00 7,4 39 1.031 3,9 N -5,6 0,0 0,0
10:45 7,0 39 1.031 1,8 N -6,0 0,0 0,0
10:30 6,5 40 1.032 3,4 NE -6,1 0,0 0,0
10:15 6,2 41 1.032 4,7 NE -6,1 0,0 0,0
10:00 5,1 43 1.032 1,8 E -6,4 0,0 0,0
09:45 4,9 44 1.032 3,6 N -6,3 0,0 0,0
09:30 3,2 51 1.032 1,6 N -6,0 0,0 0,0
09:15 3,0 51 1.033 2,6 NNE -6,1 0,0 0,0
09:00 2,8 51 1.033 2,4 NNE -6,3 0,0 0,0
08:45 2,6 52 1.033 1,6 NE -6,3 0,0 0,0
08:30 2,5 52 1.033 2,6 NE -6,4 0,0 0,0
08:15 2,4 53 1.033 2,6 NNE -6,2 0,0 0,0
08:00 2,3 53 1.032 2,8 ENE -6,3 0,0 0,0
07:45 2,4 54 1.032 1,8 NE -6,0 0,0 0,0
07:30 1,9 56 1.032 3,9 NNE -5,9 0,0 0,0
07:15 2,3 54 1.032 2,8 E -6,0 0,0 0,0
07:00 2,5 53 1.032 2,8 E -6,1 0,0 0,0
06:45 2,9 52 1.032 3,9 ENE -6,0 0,0 0,0
06:30 2,4 54 1.032 2,6 NE -6,0 0,0 0,0
06:15 2,5 53 1.032 1,6 ENE -6,1 0,0 0,0
06:00 2,8 53 1.032 2,8 ENE -5,8 0,0 0,0
05:45 2,8 54 1.032 4,5 ENE -5,6 0,0 0,0
05:30 2,9 53 1.032 3,6 ENE -5,7 0,0 0,0
05:15 3,0 53 1.032 2,2 NNE -5,6 0,0 0,0
05:00 2,4 56 1.032 2,2 NE -5,5 0,0 0,0
04:45 2,4 55 1.032 2,4 NE -5,7 0,0 0,0
04:30 2,6 55 1.032 2,8 NE -5,5 0,0 0,0
04:15 2,8 54 1.032 2,2 NE -5,6 0,0 0,0
04:00 3,0 54 1.032 2,6 ENE -5,4 0,0 0,0
03:45 2,9 55 1.032 1,8 NE -5,2 0,0 0,0
03:30 2,8 55 1.032 3,4 ENE -5,3 0,0 0,0
03:15 2,6 55 1.032 2,0 NE -5,5 0,0 0,0
03:00 2,8 53 1.032 1,2 NNE -5,8 0,0 0,0
02:45 3,4 53 1.033 2,2 NNE -5,3 0,0 0,0
02:30 3,4 53 1.033 2,8 NE -5,3 0,0 0,0
02:15 3,4 54 1.033 3,9 ENE -5,0 0,0 0,0
02:00 3,4 53 1.033 1,6 NE -5,3 0,0 0,0
01:45 3,5 54 1.033 2,6 NE -4,9 0,0 0,0
01:30 3,3 53 1.033 2,4 NNE -5,4 0,0 0,0
01:15 3,7 53 1.033 0,0 ENE -5,0 0,0 0,0
01:00 3,7 53 1.033 1,6 NE -5,0 0,0 0,0
00:45 3,7 52 1.033 2,4 NE -5,2 0,0 0,0
00:30 4,1 52 1.033 1,4 NE -4,9 0,0 0,0
00:15 4,0 53 1.033 3,0 NNE -4,7 0,0 0,0
00:00 3,8 54 1.033 2,4 ENE -4,6 0,0 0,0

 

 

Stampa paginastampa    torna in cima

 2002-2019 osservatoriocalliano.it